FW7828 Weather Reports


time (UTC)temp
C
wind
direction
speed
KPH
gust
KPH
rain 1hr
cm
rain 24hr
cm
rain mn
cm
humidity
%
barometer
mb
20260902222608 29 358 1.6 3.2 0.00 0.00 0.00 85 1015.8
20260902222107 29 76 3.2 4.8 0.00 0.00 0.00 85 1015.6
20260902221602 30 62 1.6 1.6 0.00 0.00 0.00 85 1015.5
20260902221101 30 54 0.0 0.0 0.00 0.00 0.00 85 1015.4
20260902220557 30 66 1.6 3.2 0.00 0.00 0.00 84 1015.7
20260902220052 30 76 1.6 3.2 0.00 0.00 0.00 84 1015.5
20260902215548 30 76 1.6 1.6 0.00 0.00 0.00 85 1015.3
20260902215043 30 82 1.6 1.6 0.00 0.00 0.00 85 1015.5
20260902214538 30 35 0.0 1.6 0.00 0.00 0.00 86 1015.6
20260902214037 30 23 1.6 1.6 0.00 0.00 0.00 85 1015.6
20260902213533 30 31 0.0 1.6 0.00 0.00 0.00 85 1015.7
20260902213032 30 25 1.6 1.6 0.00 0.00 0.00 85 1015.6
20260902212528 30 54 0.0 0.0 0.00 0.00 0.00 84 1015.6
20260902212023 30 54 0.0 1.6 0.00 0.00 0.00 82 1015.8
20260902211519 31 36 3.2 3.2 0.00 0.00 0.00 82 1015.5
20260902211015 31 92 3.2 3.2 0.00 0.00 0.00 81 1015.2
20260902210514 31 52 0.0 0.0 0.00 0.00 0.00 82 1015.3
20260902210014 31 49 1.6 1.6 0.00 0.00 0.00 81 1015.2
20260902205508 31 79 1.6 3.2 0.00 0.00 0.00 80 1015.1
20260902205004 31 103 4.8 4.8 0.00 0.00 0.00 79 1014.8
20260902204503 31 84 4.8 8.0 0.00 0.00 0.00 79 1014.6
20260902203958 32 75 3.2 3.2 0.00 0.00 0.00 79 1014.5
20260902203454 33 90 3.2 3.2 0.00 0.00 0.00 76 1014.6
20260902202952 33 134 3.2 3.2 0.00 0.00 0.00 74 1014.6
20260902202449 33 92 0.0 0.0 0.00 0.00 0.00 71 1014.6
20260902201945 33 85 1.6 1.6 0.00 0.00 0.00 74 1014.8
20260902201440 33 18 0.0 1.6 0.00 0.00 0.00 73 1014.7
20260902200940 33 80 1.6 3.2 0.00 0.00 0.00 72 1014.7
20260902200435 33 71 1.6 1.6 0.00 0.00 0.00 73 1014.9
20260902195931 33 132 0.0 1.6 0.00 0.00 0.00 73 1014.9
20260902195426 33 145 1.6 1.6 0.00 0.00 0.00 75 1015.0
20260902194920 33 155 0.0 1.6 0.00 0.00 0.00 73 1015.0
20260902194420 33 152 1.6 1.6 0.00 0.00 0.00 73 1015.3
20260902193915 32 134 0.0 1.6 0.00 0.00 0.00 75 1015.2
20260902193411 32 150 0.0 1.6 0.00 0.00 0.00 75 1015.3
20260902192909 32 314 0.0 0.0 0.00 0.00 0.00 76 1015.4
20260902192409 32 150 0.0 0.0 0.00 0.00 0.00 76 1015.3
20260902191908 32 196 0.0 0.0 0.00 0.00 0.00 75 1015.2
20260902191358 33 143 0.0 1.6 0.00 0.00 0.00 74 1015.5
20260902190858 33 152 1.6 3.2 0.00 0.00 0.00 73 1015.6
20260902190353 33 113 3.2 3.2 0.00 0.00 0.00 72 1015.6
20260902185849 33 208 1.6 1.6 0.00 0.00 0.00 72 1015.6
20260902185345 33 245 1.6 1.6 0.00 0.00 0.00 72 1015.4
20260902184840 33 177 1.6 3.2 0.00 0.00 0.00 71 1015.6
20260902184335 33 122 1.6 1.6 0.00 0.00 0.00 75 1015.5
20260902183831 33 199 1.6 3.2 0.00 0.00 0.00 70 1015.5
20260902183327 33 176 1.6 1.6 0.00 0.00 0.00 70 1015.4
20260902182822 33 183 1.6 3.2 0.00 0.00 0.00 70 1015.7
20260902182319 33 183 3.2 3.2 0.00 0.00 0.00 70 1015.7
20260902181815 33 199 3.2 3.2 0.00 0.00 0.00 70 1015.7
20260902181310 33 122 3.2 3.2 0.00 0.00 0.00 69 1015.6
20260902180804 33 279 0.0 1.6 0.00 0.00 0.00 70 1015.5
20260902180300 32 297 1.6 1.6 0.00 0.00 0.00 73 1015.7
20260902175755 32 144 3.2 4.8 0.00 0.00 0.00 73 1015.6
20260902175250 32 169 3.2 3.2 0.00 0.00 0.00 74 1015.7
20260902174746 33 162 1.6 3.2 0.00 0.00 0.00 72 1015.7
20260902174242 33 126 0.0 1.6 0.00 0.00 0.00 74 1015.8
20260902173737 32 135 1.6 3.2 0.00 0.00 0.00 76 1015.7
20260902173237 32 156 1.6 3.2 0.00 0.00 0.00 76 1015.6
20260902172732 32 148 1.6 3.2 0.00 0.00 0.00 77 1015.7
20260902172232 32 156 3.2 3.2 0.00 0.00 0.00 76 1015.4
20260902171727 32 199 3.2 3.2 0.00 0.00 0.00 76 1016.0
20260902171222 32 19 0.0 1.6 0.00 0.00 0.00 76 1015.7
20260902170718 32 162 4.8 4.8 0.00 0.00 0.00 76 1015.8
20260902170213 32 175 3.2 3.2 0.00 0.00 0.00 77 1015.8
20260902165708 31 166 3.2 4.8 0.00 0.00 0.00 77 1015.8
20260902165202 31 164 3.2 3.2 0.00 0.00 0.00 76 1015.7
20260902164657 31 172 4.8 4.8 0.00 0.00 0.00 76 1015.9
20260902164156 32 151 4.8 4.8 0.00 0.00 0.00 76 1015.6
20260902163652 32 161 3.2 3.2 0.00 0.00 0.00 75 1015.9
20260902163151 32 165 3.2 3.2 0.00 0.00 0.00 74 1016.0
20260902162650 32 201 6.4 9.7 0.00 0.00 0.00 74 1016.0
20260902162144 32 158 3.2 3.2 0.00 0.00 0.00 73 1015.8
20260902161640 32 158 3.2 3.2 0.00 0.00 0.00 72 1016.1
20260902161136 32 171 1.6 1.6 0.00 0.00 0.00 71 1016.0
20260902160632 32 131 3.2 3.2 0.00 0.00 0.00 72 1016.0
20260902160127 32 174 4.8 4.8 0.00 0.00 0.00 73 1015.9
20260902155625 31 150 1.6 3.2 0.00 0.00 0.00 74 1016.2
20260902155124 31 131 1.6 1.6 0.00 0.00 0.00 73 1016.0
20260902154619 31 138 4.8 4.8 0.00 0.00 0.00 73 1016.1
20260902154114 31 175 1.6 1.6 0.00 0.00 0.00 73 1016.0
20260902153613 31 161 3.2 3.2 0.00 0.00 0.00 74 1016.1
20260902153108 30 223 1.6 1.6 0.00 0.00 0.00 77 1016.2
20260902152605 30 176 4.8 4.8 0.00 0.00 0.00 79 1016.1
20260902152100 29 113 3.2 4.8 0.00 0.00 0.00 80 1016.1
20260902151555 30 155 4.8 4.8 0.00 0.00 0.00 81 1016.2
20260902151055 29 91 3.2 4.8 0.00 0.00 0.00 80 1016.4
20260902150550 29 170 4.8 4.8 0.00 0.00 0.00 81 1016.1
20260902150046 29 177 4.8 4.8 0.00 0.00 0.00 81 1016.0
20260902145541 29 168 3.2 3.2 0.00 0.00 0.00 81 1015.8
20260902145040 28 68 1.6 1.6 0.00 0.00 0.00 81 1015.9
20260902144537 28 150 1.6 3.2 0.00 0.00 0.00 82 1015.9
20260902144038 28 213 1.6 1.6 0.00 0.00 0.00 84 1015.8
20260902143538 28 160 3.2 3.2 0.00 0.00 0.00 84 1015.9
20260902143034 28 185 3.2 4.8 0.00 0.00 0.00 84 1015.8
20260902142529 27 151 1.6 1.6 0.00 0.00 0.00 83 1015.8
20260902142025 27 165 0.0 1.6 0.00 0.00 0.00 84 1016.0
20260902141524 27 9 1.6 1.6 0.00 0.00 0.00 84 1016.0
20260902141020 27 196 1.6 3.2 0.00 0.00 0.00 85 1015.9
20260902140520 27 7 0.0 0.0 0.00 0.00 0.00 85 1015.7
20260902140015 27 157 4.8 4.8 0.00 0.00 0.00 85 1015.8
20260902135509 27 107 3.2 3.2 0.00 0.00 0.00 85 1015.9
20260902135009 27 178 1.6 1.6 0.00 0.00 0.00 85 1015.9
20260902134505 27 136 4.8 4.8 0.00 0.00 0.00 84 1015.9
20260902134000 28 1 0.0 1.6 0.00 0.00 0.00 84 1015.7
20260902133455 28 114 0.0 1.6 0.00 0.00 0.00 83 1015.8
20260902132949 28 141 0.0 1.6 0.00 0.00 0.00 82 1015.8
20260902132444 27 107 0.0 0.0 0.00 0.00 0.00 82 1015.9
20260902131939 27 318 1.6 1.6 0.00 0.00 0.00 84 1015.9
20260902131436 27 124 3.2 3.2 0.00 0.00 0.00 84 1016.1
20260902130935 27 167 3.2 4.8 0.00 0.00 0.00 84 1016.0
20260902130431 27 292 0.0 1.6 0.00 0.00 0.00 84 1015.9
20260902125926 27 172 1.6 3.2 0.00 0.00 0.00 84 1015.9
20260902125422 27 177 1.6 1.6 0.00 0.00 0.00 84 1015.8
20260902124918 26 8 0.0 1.6 0.00 0.00 0.00 85 1015.9
20260902124413 26 137 0.0 0.0 0.00 0.00 0.00 86 1015.8
20260902123908 26 195 0.0 1.6 0.00 0.00 0.00 86 1015.9
20260902123405 26 255 0.0 0.0 0.00 0.00 0.00 87 1015.9
20260902122903 26 24 0.0 0.0 0.00 0.00 0.00 87 1015.9
20260902122359 26 217 1.6 1.6 0.00 0.00 0.00 87 1016.1
20260902121854 26 149 1.6 1.6 0.00 0.00 0.00 88 1015.9
20260902121349 26 246 1.6 1.6 0.00 0.00 0.00 89 1016.0
20260902120844 25 150 1.6 3.2 0.00 0.00 0.00 89 1016.2
20260902120340 25 147 0.0 1.6 0.00 0.00 0.00 90 1016.2
20260902115834 25 347 0.0 0.0 0.00 0.00 0.00 91 1016.1
20260902115331 25 118 0.0 0.0 0.00 0.00 0.00 90 1016.0
20260902114827 25 261 0.0 0.0 0.00 0.00 0.00 91 1015.9
20260902114323 25 334 0.0 0.0 0.00 0.00 0.00 91 1015.8
20260902113823 25 279 0.0 0.0 0.00 0.00 0.00 91 1015.8
20260902113318 25 316 1.6 1.6 0.00 0.00 0.00 91 1015.6
20260902112817 25 39 0.0 0.0 0.00 0.00 0.00 91 1015.6
20260902112314 25 174 1.6 3.2 0.00 0.00 0.00 91 1015.9
20260902111809 25 240 0.0 0.0 0.00 0.00 0.00 91 1015.8
20260902111306 25 240 0.0 0.0 0.00 0.00 0.00 91 1015.8
20260902110801 25 294 0.0 0.0 0.00 0.00 0.00 91 1015.5
20260902110257 25 304 0.0 0.0 0.00 0.00 0.00 91 1015.5
20260902105756 25 233 1.6 1.6 0.00 0.00 0.00 91 1015.4
20260902105252 25 215 0.0 0.0 0.00 0.00 0.00 91 1015.7
20260902104747 25 247 3.2 4.8 0.00 0.00 0.00 91 1015.5
20260902104243 25 250 1.6 1.6 0.00 0.00 0.00 90 1015.4
20260902103743 25 260 1.6 3.2 0.00 0.00 0.00 90 1015.5
20260902103237 25 244 0.0 1.6 0.00 0.00 0.00 90 1015.6
20260902102733 25 5 0.0 1.6 0.00 0.00 0.00 90 1015.6
20260902102230 25 276 0.0 0.0 0.00 0.00 0.00 90 1015.6
20260902101725 25 130 1.6 3.2 0.00 0.00 0.00 90 1015.7
20260902101220 25 84 0.0 0.0 0.00 0.00 0.00 90 1015.5
20260902100719 25 349 0.0 0.0 0.00 0.00 0.00 89 1015.5
20260902100214 25 8 0.0 0.0 0.00 0.00 0.00 89 1015.5
20260902095714 25 328 0.0 1.6 0.00 0.00 0.00 89 1015.5
20260902095208 25 21 0.0 0.0 0.00 0.00 0.00 89 1015.6
20260902094703 25 286 1.6 3.2 0.00 0.00 0.00 90 1015.5
20260902094159 25 291 0.0 0.0 0.00 0.00 0.00 90 1015.4
20260902093658 25 327 0.0 1.6 0.00 0.00 0.00 90 1015.4
20260902093153 25 251 0.0 1.6 0.00 0.00 0.00 90 1015.5
20260902092648 25 345 0.0 1.6 0.00 0.00 0.00 91 1015.4
20260902092143 25 187 0.0 0.0 0.00 0.00 0.00 91 1015.5
20260902091637 25 291 0.0 0.0 0.00 0.00 0.00 90 1015.5
20260902091134 25 98 1.6 1.6 0.00 0.00 0.00 91 1015.4
20260902090630 25 243 1.6 1.6 0.00 0.00 0.00 91 1015.3
20260902090129 25 123 1.6 1.6 0.00 0.00 0.00 91 1015.5
20260902085624 25 264 0.0 0.0 0.00 0.00 0.00 91 1015.6
20260902085119 25 232 0.0 1.6 0.00 0.00 0.00 91 1015.4
20260902084615 25 283 0.0 1.6 0.00 0.00 0.00 91 1015.4
20260902084110 25 331 0.0 0.0 0.00 0.00 0.00 91 1015.3
20260902083606 25 231 0.0 0.0 0.00 0.00 0.00 90 1015.3
20260902083105 25 252 0.0 0.0 0.00 0.00 0.00 90 1015.4
20260902082601 25 335 0.0 1.6 0.00 0.00 0.00 90 1015.2
20260902082057 25 40 0.0 0.0 0.00 0.00 0.00 90 1015.3
20260902081554 25 350 0.0 0.0 0.00 0.00 0.00 90 1015.4
20260902081053 25 280 1.6 1.6 0.00 0.00 0.00 90 1015.2
20260902080548 25 294 0.0 0.0 0.00 0.00 0.00 90 1015.3
20260902080045 25 294 0.0 1.6 0.00 0.00 0.00 90 1015.6
20260902075544 25 238 1.6 1.6 0.00 0.00 0.00 90 1015.5
20260902075041 25 283 0.0 1.6 0.00 0.00 0.00 90 1015.5
20260902074536 25 276 0.0 0.0 0.00 0.00 0.00 90 1015.2
20260902074031 25 345 0.0 0.0 0.00 0.00 0.00 90 1015.4
20260902073526 25 301 0.0 0.0 0.00 0.00 0.00 90 1015.3
20260902073023 25 340 1.6 1.6 0.00 0.00 0.00 89 1015.4
20260902072518 25 353 0.0 0.0 0.00 0.00 0.00 89 1015.7
20260902072015 25 354 0.0 0.0 0.00 0.00 0.00 89 1015.4
20260902071514 25 256 1.6 1.6 0.00 0.00 0.00 89 1015.6
20260902071010 25 336 1.6 1.6 0.00 0.00 0.00 89 1015.5
20260902070506 25 40 0.0 0.0 0.00 0.00 0.00 90 1015.6
20260902070007 25 292 1.6 1.6 0.00 0.00 0.00 90 1015.9
20260902065500 25 57 0.0 0.0 0.00 0.00 0.00 89 1015.7
20260902064955 25 346 0.0 0.0 0.00 0.00 0.00 89 1015.6
20260902064450 25 222 0.0 1.6 0.00 0.00 0.00 89 1015.9
20260902063946 25 265 1.6 1.6 0.00 0.00 0.00 89 1015.7
20260902063445 25 345 0.0 0.0 0.00 0.00 0.00 89 1015.7
20260902062941 25 73 1.6 3.2 0.00 0.00 0.00 89 1015.7
20260902062440 25 182 1.6 1.6 0.00 0.00 0.00 89 1015.9
20260902061935 25 284 0.0 0.0 0.00 0.00 0.00 90 1015.8
20260902061430 25 285 1.6 1.6 0.00 0.00 0.00 89 1015.8
20260902060926 25 338 0.0 0.0 0.00 0.00 0.00 89 1016.0
20260902060422 25 322 0.0 0.0 0.00 0.00 0.00 89 1016.0
20260902055918 25 7 1.6 1.6 0.00 0.00 0.00 88 1016.2
20260902055414 26 289 0.0 0.0 0.00 0.00 0.00 88 1015.8
20260902054909 26 288 0.0 1.6 0.00 0.00 0.00 87 1015.9
20260902054404 26 352 0.0 0.0 0.00 0.00 0.00 88 1015.9
20260902053859 26 177 3.2 3.2 0.00 0.00 0.00 88 1016.1
20260902053354 26 270 0.0 0.0 0.00 0.00 0.00 89 1016.0
20260902052853 25 295 0.0 0.0 0.00 0.00 0.00 89 1016.1
20260902052349 26 352 0.0 0.0 0.00 0.00 0.00 88 1016.1
20260902051844 26 286 0.0 1.6 0.00 0.00 0.00 88 1016.1
20260902051343 26 3 0.0 0.0 0.00 0.00 0.00 89 1016.0
20260902050837 25 6 0.0 1.6 0.00 0.00 0.00 88 1016.0
20260902050331 26 354 0.0 0.0 0.00 0.00 0.00 88 1015.9
20260902045826 26 358 0.0 1.6 0.00 0.00 0.00 87 1016.1
20260902045322 26 351 0.0 0.0 0.00 0.00 0.00 87 1016.0
20260902044819 26 13 0.0 1.6 0.00 0.00 0.00 87 1016.0
20260902044314 26 49 1.6 1.6 0.00 0.00 0.00 87 1015.9
20260902043814 26 281 1.6 1.6 0.00 0.00 0.00 87 1015.8
20260902043309 26 339 1.6 1.6 0.00 0.00 0.00 86 1015.7
20260902042809 26 270 1.6 1.6 0.00 0.00 0.00 86 1015.6
20260902042308 26 178 1.6 3.2 0.00 0.00 0.00 86 1015.5
20260902041759 26 319 0.0 0.0 0.00 0.00 0.00 86 1015.5
20260902041259 26 4 0.0 0.0 0.00 0.00 0.00 86 1015.2
20260902040758 26 147 1.6 3.2 0.00 0.00 0.00 85 1015.5
20260902040254 27 345 1.6 1.6 0.00 0.00 0.00 84 1015.5
20260902035752 26 186 4.8 4.8 0.00 0.00 0.00 84 1015.2
20260902035248 26 72 1.6 1.6 0.00 0.00 0.00 85 1015.3
20260902034746 26 14 0.0 0.0 0.00 0.00 0.00 86 1015.1
20260902034242 26 218 0.0 1.6 0.00 0.00 0.00 85 1015.3
20260902033739 26 259 0.0 0.0 0.00 0.00 0.00 86 1015.4
20260902033235 26 334 0.0 0.0 0.00 0.00 0.00 86 1015.3
20260902032733 26 126 0.0 0.0 0.00 0.00 0.00 85 1015.6
20260902032228 27 22 0.0 0.0 0.00 0.00 0.00 86 1015.4
20260902031723 27 192 3.2 8.0 0.00 0.00 0.00 84 1015.5
20260902031219 27 64 0.0 0.0 0.00 0.00 0.00 86 1015.5
20260902030714 27 102 1.6 1.6 0.00 0.00 0.00 85 1015.2
20260902030213 27 320 0.0 0.0 0.00 0.00 0.00 86 1015.2
20260902025713 27 256 1.6 1.6 0.00 0.00 0.00 86 1015.3
20260902025208 27 296 0.0 0.0 0.00 0.00 0.00 87 1015.1
20260902024703 27 346 0.0 0.0 0.00 0.00 0.00 86 1015.2
20260902024158 27 31 3.2 3.2 0.00 0.00 0.00 86 1015.1
20260902023654 27 197 4.8 4.8 0.00 0.00 0.00 86 1015.1
20260902023149 27 248 0.0 0.0 0.00 0.00 0.00 86 1015.1
20260902022648 27 195 4.8 4.8 0.00 0.00 0.00 86 1015.0
20260902022144 27 322 0.0 0.0 0.00 0.00 0.00 87 1015.3
20260902021639 27 11 0.0 1.6 0.00 0.00 0.00 87 1015.2
20260902021134 27 159 0.0 0.0 0.00 0.00 0.00 88 1015.0
20260902020631 27 350 0.0 0.0 0.00 0.00 0.00 88 1014.9
20260902020126 27 274 1.6 1.6 0.00 0.00 0.00 87 1014.9
20260902015621 27 291 0.0 0.0 0.00 0.00 0.00 86 1014.9
20260902015118 28 29 0.0 1.6 0.00 0.00 0.00 86 1014.6
20260902014613 28 221 0.0 0.0 0.00 0.00 0.00 86 1014.8
20260902014108 28 171 1.6 3.2 0.00 0.00 0.00 85 1014.5
20260902013608 28 179 4.8 4.8 0.00 0.00 0.00 86 1014.4
20260902013104 28 275 1.6 1.6 0.00 0.00 0.00 86 1014.5
20260902012559 28 197 1.6 1.6 0.00 0.00 0.00 86 1014.2
20260902012054 28 232 1.6 1.6 0.00 0.00 0.00 86 1014.5
20260902011550 28 212 1.6 3.2 0.00 0.00 0.00 86 1014.4
20260902011049 28 205 1.6 1.6 0.00 0.00 0.00 86 1014.4
20260902010548 28 220 3.2 4.8 0.00 0.00 0.00 85 1014.4
20260902010045 28 222 1.6 3.2 0.00 0.00 0.00 85 1014.4
20260902005542 28 164 6.4 8.0 0.00 0.00 0.00 86 1014.2
20260902005039 28 184 4.8 8.0 0.00 0.00 0.00 86 1014.1
20260902004538 28 178 1.6 3.2 0.00 0.00 0.00 85 1014.3
20260902004033 28 212 3.2 4.8 0.00 0.00 0.00 85 1014.5
20260902003528 28 172 4.8 4.8 0.00 0.00 0.00 86 1014.1
20260902003024 28 215 3.2 3.2 0.00 0.00 0.00 86 1014.2
20260902002520 28 179 3.2 3.2 0.00 0.00 0.00 85 1014.1
20260902002014 28 201 1.6 1.6 0.00 0.00 0.00 85 1014.4
20260902001509 28 254 0.0 1.6 0.00 0.00 0.00 84 1014.2
20260902001004 29 141 3.2 3.2 0.00 0.00 0.00 84 1014.2
20260902000459 29 146 4.8 4.8 0.00 0.00 0.00 84 1014.0
20260901235954 29 241 3.2 3.2 0.00 0.00 0.00 84 1014.0
20260901235449 29 189 4.8 4.8 0.00 0.00 0.00 83 1014.3
20260901234944 29 180 3.2 4.8 0.00 0.00 0.00 83 1014.1
20260901234437 30 212 1.6 1.6 0.00 0.00 0.00 82 1014.3
20260901233933 30 211 1.6 1.6 0.00 0.00 0.00 81 1014.1
20260901233428 30 198 3.2 3.2 0.00 0.00 0.00 80 1014.1
20260901232925 30 216 4.8 4.8 0.00 0.00 0.00 80 1014.1
20260901232424 30 228 0.0 1.6 0.00 0.00 0.00 78 1014.2
20260901231920 30 169 4.8 8.0 0.00 0.00 0.00 79 1014.4
20260901231416 30 175 4.8 4.8 0.00 0.00 0.00 78 1014.5
20260901230913 30 185 1.6 1.6 0.00 0.00 0.00 79 1014.4
20260901230412 30 200 1.6 1.6 0.00 0.00 0.00 79 1014.4
20260901225907 31 167 3.2 3.2 0.00 0.00 0.00 77 1014.6
20260901225406 31 211 6.4 8.0 0.00 0.00 0.00 78 1014.4
20260901224901 31 198 1.6 1.6 0.00 0.00 0.00 77 1014.6
20260901224358 31 191 3.2 4.8 0.00 0.00 0.00 79 1014.6
20260901223854 30 192 1.6 3.2 0.00 0.00 0.00 79 1014.6
20260901223349 29 179 0.0 1.6 0.00 0.00 0.00 85 1014.6
20260901222845 29 352 0.0 0.0 0.00 0.00 0.00 85 1014.7